Location: Crocus Hill
(18.2167°N, 63.0667°W)
Time: 15:22:32
(UTC+00:00)

Cosmos 962 Rocket - Pass Details

Date: 26 January 2020
Orbit: 951 x 998 km, 83.0° (Epoch: 25 February)

Event Time Altitude Azimuth Distance (km) Brightness Sun altitude
Rises 09:28:06 0° 352° (N) 3,697 7.3 -18.7°
Reaches altitude 10° 09:30:37 10° 350° (N) 2,752 6.6 -18.1°
Maximum altitude 09:36:54 70° 267° (W) 1,053 4.5 -16.7°
Drops below altitude 10° 09:43:12 10° 185° (S) 2,758 7.0 -15.2°
Sets 09:45:44 0° 183° (S) 3,705 7.7 -14.6°
